Location: *
(40.9167°N, 9.5000°E)
Time: 01:00:43
(UTC+00:00)

Cosmos 1833 Rocket - Pass Details

Date: 09 April 2020
Orbit: 834 x 838 km, 71.0° (Epoch: 05 June)

Event Time Altitude Azimuth Distance (km) Brightness Sun altitude
Exits shadow 20:38:46 29° 42° (NE) 1,503 3.9 -28.2°
Drops below altitude 10° 20:41:30 10° 32° (NNE) 2,457 5.2 -28.6°
Sets 20:43:59 0° 28° (NNE) 3,395 6.0 -28.9°
